[[{"header":{"parameterUnit":"m.s-1","parameterCategory":1,"la1":30.2991,"la2":30.254,"lo1":-89.0895,"lo2":-89.0444,"dy":0.0017,"dx":0.0017,"nx":28,"ny":28,"refTime":"2023-03-29T21:00:00:Z","depth":0,"parameterNumber":2,"parameterNumberName":"U-component_of_WINDS"},"data":[0,0,0,0,0,0,0,0,0,0,0,0,0,0,0,0,0,0,0,0,0,0,0,0,0,0,0,0,0,0,0,0,0,0,0,0,0,0,0,0,0,0,0,0,0,0,0,0,0,0,0,0,0,0,0,0,0,0,-2.1033,-2.1033,0,-2.1057,-2.1057,-2.1058,-2.094,-2.0936,-2.0933,-2.093,-2.0956,-2.096,-2.0964,0,0,0,0,0,0,0,0,0,0,0,0,0,-2.0885,-2.0888,-2.1033,-2.1033,-2.1033,-2.1057,-2.1057,-2.1058,-2.094,-2.0936,-2.0932,-2.0928,-2.0955,-2.096,-2.0964,0,0,0,0,0,0,0,0,0,0,0,0,0,-2.0933,-2.0889,-2.1032,-2.0977,-2.0973,-2.1057,-2.1057,-2.1058,-2.0941,-2.0936,-2.0931,-2.0926,-2.0954,-2.0959,-2.0965,-2.1104,0,0,-2.0983,-2.0985,0,0,0,0,0,0,0,0,-2.0931,-2.0939,-2.0985,-2.0981,-2.0976,-2.099,-2.1015,-2.1073,-2.0942,-2.0953,-2.0929,-2.0923,-2.0972,-2.0976,-2.0992,-2.1105,-2.1106,-2.0983,-2.0987,-2.0989,-2.0991,0,0,0,0,0,0,0,-2.0927,-2.0937,-2.1042,-2.0986,-2.0981,-2.0952,-2.0953,-2.1025,-2.0991,-2.0952,-2.0943,-2.0948,-2.0968,-2.0986,-2.0991,-2.1107,-2.0983,-2.0988,-2.0992,-2.0994,-2.1334,-2.1339,0,0,0,0,0,0,-2.0931,-2.0935,-2.1041,-2.1043,-2.094,-2.0958,-2.096,-2.0991,-2.099,-2.0985,-2.0952,-2.0942,-2.0979,-2.0985,-2.0992,-2.1154,-2.0989,-2.0995,-2.0998,-2.1329,-2.1335,-2.1341,0,0,0,0,0,0,-2.0928,-2.0942,-2.104,-2.0987,-2.0997,-2.0966,-2.1002,-2.0994,-2.1012,-2.099,-2.0983,-2.0977,-2.0975,-2.0984,-2.1077,-2.1153,-2.0998,-2.1003,-2.1322,-2.1331,-2.1338,-2.148,0,0,0,0,0,0,-2.0925,-2.0941,-2.0994,-2.0989,-2.1,-2.1125,-2.1007,-2.0998,-2.1022,-2.1009,-2.1011,-2.1007,-2.0972,-2.1069,-2.1082,-2.1159,-2.1007,-2.1315,-2.1326,-2.1336,-2.1468,-2.1492,-2.1512,0,0,0,0,0,-2.092,-2.1033,-2.0997,-2.1011,-2.1065,-2.113,-2.1136,-2.1093,-2.1029,-2.1081,-2.1067,-2.1007,-2.1143,-2.1079,-2.1094,-2.1173,-2.131,-2.1323,-2.1335,-2.1458,-2.1487,-2.1512,0,0,0,0,0,0,-2.1049,-2.1032,-2.0991,-2.1107,-2.112,-2.111,-2.1174,-2.1125,-2.1158,-2.1145,-2.109,-2.1091,-2.1194,-2.1192,-2.1122,-2.1307,-2.1215,-2.1231,-2.1304,-2.1331,-2.1353,-2.1351,-2.1012,0,0,0,0,0,-2.1091,-2.1144,-2.1126,-2.123,-2.1238,-2.1206,-2.1232,-2.1197,-2.121,-2.1215,-2.1208,-2.1223,-2.1268,-2.1299,-2.134,-2.1467,-2.1466,-2.1529,-2.1551,-2.1569,-2.1584,-2.165,-2.1678,-2.1382,-2.1382,-2.1382,0,0,-2.1178,-2.1175,-2.1212,-2.1256,-2.1262,-2.1319,-2.1211,-2.1276,-2.1318,-2.1225,-2.1312,-2.1307,-2.132,-2.143,-2.1479,-2.1432,-2.1665,-2.1585,-2.1599,-2.1604,-2.1666,-2.1694,-2.1718,-2.1391,-2.1389,-2.1388,0,0,-2.1366,-2.1369,-2.1455,-2.1464,-2.1475,-2.1452,-2.1473,-2.1469,-2.1463,-2.1549,-2.148,-2.1529,-2.1609,-2.1621,-2.1637,-2.1828,-2.1774,-2.1843,-2.1959,-2.2024,-2.2047,-2.2068,-2.2136,-2.2161,-2.1858,-2.1858,-2.1858,0,-2.1473,-2.1555,-2.1506,-2.1575,-2.1596,-2.1514,-2.1601,-2.1611,-2.1636,-2.1652,-2.16,-2.1698,-2.1701,-2.1812,-2.1859,-2.1875,-2.1897,-2.1843,-2.2048,-2.2068,-2.2086,-2.215,-2.2176,-2.1866,-2.1865,-2.1865,-2.1864,0,-2.1686,-2.1745,-2.1813,-2.1838,-2.1866,-2.1944,-2.1907,-2.1941,-2.1904,-2.1887,-2.1976,-2.1976,-2.2015,-2.2039,-2.2003,-2.2146,-2.2116,-2.2057,-2.1964,-2.2123,-2.2183,-2.2207,-2.1878,-2.1875,-2.1873,-2.1871,0,0,-2.1957,-2.1953,-2.1979,-2.1989,-2.1995,-2.2039,-2.2113,-2.215,-2.2181,-2.2201,-2.2261,-2.233,-2.2275,-2.2294,-2.2259,-2.2316,-2.2467,-2.2249,-2.2249,-2.229,-2.2624,-2.2669,-2.2698,-2.2431,-2.2436,-2.2439,-2.2623,0,-2.2141,-2.2267,-2.2224,-2.2352,-2.2405,-2.2327,-2.2391,-2.2402,-2.2388,-2.2431,-2.2415,-2.2465,-2.2388,-2.2399,-2.2452,-2.2438,-2.2534,-2.2424,-2.2487,-2.249,-2.2487,-2.2729,-2.2777,-2.295,-2.2646,-2.2649,-2.2652,0,-2.2372,-2.24,-2.2534,-2.253,-2.255,-2.2609,-2.2639,-2.2682,-2.2692,-2.2677,-2.2698,-2.2651,-2.2723,-2.2629,-2.2728,-2.2654,-2.2677,-2.2674,-2.268,-2.2684,-2.2581,-2.274,-2.3004,-2.303,-2.2688,-2.2686,-2.2683,0,-2.2557,-2.2627,-2.2716,-2.2727,-2.2725,-2.2768,-2.2769,-2.2774,-2.2799,-2.2826,-2.2841,-2.2877,-2.2896,-2.2925,-2.2888,-2.2824,-2.2992,-2.2896,-2.2982,-2.2983,-2.3022,-2.302,-2.3293,-2.3037,-2.3036,-2.3036,-2.3035,0,-2.2766,-2.2851,-2.2799,-2.2853,-2.2946,-2.2895,-2.2988,-2.298,-2.2986,-2.3037,-2.2972,-2.3022,-2.2971,-2.3016,-2.2988,-2.3073,-2.3083,-2.3073,-2.3065,-2.3079,-2.308,-2.3094,-2.3081,-2.3043,-2.3041,-2.304,-2.3039,0,-2.2988,-2.2956,-2.3048,-2.3038,-2.3037,-2.3106,-2.3097,-2.3147,-2.3127,-2.3194,-2.3206,-2.3177,-2.3226,-2.3192,-2.3242,-2.3223,-2.3336,-2.331,-2.3332,-2.3325,-2.3413,-2.3406,-2.3705,-2.3742,-2.3462,-2.3465,-2.3467,0,-2.3124,-2.3187,-2.3184,-2.3213,-2.3218,-2.3267,-2.3292,-2.3245,-2.3274,-2.329,-2.3338,-2.3382,-2.3415,-2.3498,-2.3481,-2.3519,-2.3494,-2.3596,-2.3499,-2.3512,-2.3495,-2.3492,-2.3498,-2.3616,-2.3619,-2.3622,-2.3624,0,-2.3369,-2.335,-2.3388,-2.3422,-2.3453,-2.3477,-2.3496,-2.3524,-2.3476,-2.3512,-2.3562,-2.3587,-2.3637,-2.3682,-2.3713,-2.3714,-2.3662,-2.3655,-2.3677,-2.3692,-2.3702,-2.3698,-2.3386,-2.3648,-2.3646,-2.3644,-2.3643,-2.3642,-2.3551,-2.3604,-2.3609,-2.3654,-2.3663,-2.3682,-2.3728,-2.3714,-2.3755,-2.3792,-2.3762,-2.3821,-2.3829,-2.3865,-2.3873,-2.3918,-2.3876,-2.3908,-2.3916,-2.3925,-2.3937,-2.3695,-2.3924,-2.3923,-2.3922,-2.3922,-2.3921,0,-2.3792,-2.3792,-2.3834,-2.3862,-2.3897,-2.3844,-2.3862,-2.3895,-2.3948,-2.3959,-2.3992,-2.405,-2.4092,-2.4078,-2.4116,-2.4155,-2.4132,-2.4167,-2.4163,-2.4164,-2.3973,-2.395,-2.4185,-2.4185,-2.4185,-2.4185,-2.4185,-2.4185,-2.3922,-2.4007,-2.3989,-2.4078,-2.4077,-2.4134,-2.4149,-2.4166,-2.4175,-2.4241,-2.4276,-2.4266,-2.4267,-2.4305,-2.4341,-2.4336,-2.4353,-2.4397,-2.4383,-2.4204,-2.4178,-2.4153,-2.4131,-2.4401,-2.4401,-2.457,-2.4572,-2.4573]},{"header":{"parameterUnit":"m.s-1","parameterCategory":1,"la1":30.2991,"la2":30.254,"lo1":-89.0895,"lo2":-89.0444,"dy":0.0017,"dx":0.0017,"nx":28,"ny":28,"refTime":"2023-03-29T21:00:00:Z","depth":0,"parameterNumber":3,"parameterNumberName":"V-component_of_WINDS"},"data":[0,0,0,0,0,0,0,0,0,0,0,0,0,0,0,0,0,0,0,0,0,0,0,0,0,0,0,0,0,0,0,0,0,0,0,0,0,0,0,0,0,0,0,0,0,0,0,0,0,0,0,0,0,0,0,0,0,0,-2.5623,-2.5624,0,-2.5675,-2.5676,-2.5676,-2.5666,-2.5666,-2.5665,-2.5664,-2.5714,-2.5716,-2.5718,0,0,0,0,0,0,0,0,0,0,0,0,0,-2.5511,-2.5513,-2.5623,-2.5624,-2.5625,-2.5675,-2.5676,-2.5677,-2.5667,-2.5665,-2.5664,-2.5663,-2.5713,-2.5715,-2.5718,0,0,0,0,0,0,0,0,0,0,0,0,0,-2.5561,-2.5514,-2.5623,-2.5626,-2.5627,-2.5675,-2.5676,-2.5677,-2.5667,-2.5665,-2.5664,-2.5663,-2.5712,-2.5715,-2.5718,-2.5766,0,0,-2.5728,-2.573,0,0,0,0,0,0,0,0,-2.5558,-2.5565,-2.5625,-2.5626,-2.5627,-2.5663,-2.5655,-2.5707,-2.5667,-2.5651,-2.5664,-2.5662,-2.5698,-2.5702,-2.5715,-2.5769,-2.5771,-2.5729,-2.5731,-2.5732,-2.5733,0,0,0,0,0,0,0,-2.5555,-2.5563,-2.5644,-2.5626,-2.5627,-2.5623,-2.5629,-2.5664,-2.5682,-2.5653,-2.5652,-2.5659,-2.5698,-2.5712,-2.5716,-2.5772,-2.5729,-2.5732,-2.5734,-2.5735,-2.5865,-2.5867,0,0,0,0,0,0,-2.5551,-2.556,-2.5642,-2.5645,-2.5588,-2.5626,-2.5632,-2.5653,-2.5681,-2.5684,-2.566,-2.5658,-2.5707,-2.5712,-2.5718,-2.5774,-2.5732,-2.5735,-2.5737,-2.5864,-2.5866,-2.5867,0,0,0,0,0,0,-2.5549,-2.5558,-2.564,-2.5603,-2.5613,-2.563,-2.5652,-2.5654,-2.5668,-2.5687,-2.5689,-2.5671,-2.5706,-2.5713,-2.5754,-2.5776,-2.5737,-2.574,-2.5862,-2.5864,-2.5867,-2.5888,0,0,0,0,0,0,-2.5546,-2.5558,-2.5577,-2.5603,-2.5615,-2.5677,-2.5654,-2.5656,-2.5674,-2.5672,-2.5698,-2.57,-2.5705,-2.5749,-2.5757,-2.5779,-2.5742,-2.586,-2.5863,-2.5866,-2.5886,-2.5891,-2.5895,0,0,0,0,0,-2.5542,-2.5581,-2.5578,-2.5588,-2.564,-2.5678,-2.5685,-2.569,-2.5676,-2.5695,-2.5706,-2.57,-2.5772,-2.5754,-2.5763,-2.5786,-2.5859,-2.5862,-2.5866,-2.5883,-2.589,-2.5895,0,0,0,0,0,0,-2.5556,-2.5584,-2.5582,-2.5631,-2.5652,-2.5677,-2.5701,-2.5697,-2.5722,-2.572,-2.5724,-2.573,-2.5772,-2.5783,-2.5762,-2.5833,-2.5813,-2.5819,-2.5824,-2.583,-2.5835,-2.583,-2.5745,0,0,0,0,0,-2.5565,-2.5596,-2.5618,-2.5659,-2.567,-2.5684,-2.5701,-2.5703,-2.5725,-2.5734,-2.5748,-2.5769,-2.5796,-2.5814,-2.584,-2.5888,-2.5892,-2.5908,-2.5913,-2.5917,-2.5921,-2.5945,-2.5951,-2.5878,-2.5878,-2.5878,0,0,-2.5584,-2.5603,-2.5622,-2.5663,-2.568,-2.5709,-2.5691,-2.5724,-2.5745,-2.5738,-2.5778,-2.5789,-2.5812,-2.5856,-2.5877,-2.5867,-2.5942,-2.5921,-2.5924,-2.5926,-2.5949,-2.5956,-2.5962,-2.5881,-2.588,-2.588,0,0,-2.5633,-2.5652,-2.5687,-2.5704,-2.573,-2.5739,-2.5747,-2.5772,-2.5779,-2.582,-2.5814,-2.584,-2.5887,-2.5903,-2.5917,-2.5971,-2.5965,-2.598,-2.6005,-2.6028,-2.6034,-2.6039,-2.6056,-2.6063,-2.5984,-2.5984,-2.5984,0,-2.5653,-2.5699,-2.5705,-2.5738,-2.5755,-2.5751,-2.5786,-2.5802,-2.5835,-2.5846,-2.5836,-2.5894,-2.591,-2.5956,-2.5969,-2.5982,-2.599,-2.5976,-2.6033,-2.6038,-2.6043,-2.6059,-2.6066,-2.5986,-2.5985,-2.5985,-2.5985,0,-2.572,-2.5752,-2.5777,-2.581,-2.583,-2.5864,-2.5874,-2.5893,-2.5894,-2.5903,-2.5942,-2.5961,-2.599,-2.6001,-2.6002,-2.6048,-2.6041,-2.6032,-2.6012,-2.6051,-2.6066,-2.6073,-2.5988,-2.5987,-2.5987,-2.5986,0,0,-2.578,-2.5815,-2.5824,-2.5838,-2.5866,-2.589,-2.5923,-2.5952,-2.5967,-2.599,-2.6016,-2.6056,-2.6047,-2.6063,-2.6066,-2.6087,-2.6126,-2.6074,-2.6075,-2.6082,-2.6175,-2.618,-2.6188,-2.6122,-2.6124,-2.6125,-2.6172,0,-2.583,-2.5889,-2.5895,-2.5947,-2.5975,-2.5971,-2.5999,-2.6019,-2.6028,-2.6052,-2.6062,-2.6089,-2.6076,-2.6086,-2.6106,-2.6117,-2.6144,-2.6114,-2.6145,-2.6146,-2.6137,-2.6196,-2.6202,-2.6246,-2.6178,-2.6179,-2.618,0,-2.5896,-2.5921,-2.5976,-2.5999,-2.6011,-2.6036,-2.6062,-2.6086,-2.6107,-2.6112,-2.613,-2.613,-2.6162,-2.6142,-2.6184,-2.6163,-2.6177,-2.6183,-2.6185,-2.6187,-2.6164,-2.6198,-2.626,-2.6266,-2.619,-2.6189,-2.6189,0,-2.5932,-2.5979,-2.6017,-2.603,-2.6058,-2.6075,-2.6087,-2.6108,-2.6124,-2.6147,-2.6157,-2.6183,-2.6197,-2.6216,-2.6222,-2.6208,-2.6264,-2.6245,-2.6267,-2.6267,-2.6278,-2.6277,-2.6342,-2.629,-2.629,-2.6289,-2.6289,0,-2.5986,-2.6019,-2.6033,-2.6057,-2.6093,-2.61,-2.6135,-2.6146,-2.6164,-2.6188,-2.6187,-2.6209,-2.6216,-2.6239,-2.6244,-2.6278,-2.6284,-2.6288,-2.6288,-2.6287,-2.6286,-2.6295,-2.6291,-2.6291,-2.6291,-2.629,-2.629,0,-2.6031,-2.6043,-2.6084,-2.6107,-2.6113,-2.6139,-2.6158,-2.618,-2.6188,-2.6219,-2.6226,-2.624,-2.6267,-2.6275,-2.6308,-2.6311,-2.6349,-2.6348,-2.6342,-2.6342,-2.6363,-2.636,-2.6434,-2.6443,-2.6386,-2.6387,-2.6387,0,-2.6064,-2.609,-2.6116,-2.6132,-2.6145,-2.6172,-2.6189,-2.6196,-2.6214,-2.6239,-2.6257,-2.6284,-2.6306,-2.6349,-2.6361,-2.6385,-2.6384,-2.6408,-2.6387,-2.6384,-2.6382,-2.6379,-2.6381,-2.6411,-2.6412,-2.6412,-2.6413,0,-2.6121,-2.6126,-2.6151,-2.6178,-2.6198,-2.6219,-2.624,-2.6253,-2.6263,-2.6282,-2.631,-2.6327,-2.636,-2.6386,-2.6411,-2.6422,-2.6418,-2.6419,-2.6425,-2.6423,-2.6418,-2.6419,-2.6351,-2.6417,-2.6417,-2.6416,-2.6416,-2.6416,-2.616,-2.6182,-2.6203,-2.6231,-2.6247,-2.6266,-2.6287,-2.6298,-2.6322,-2.6351,-2.6353,-2.6383,-2.6402,-2.6435,-2.6447,-2.6469,-2.6462,-2.6471,-2.6473,-2.6475,-2.6476,-2.6416,-2.6474,-2.6474,-2.6474,-2.6474,-2.6473,0,-2.6216,-2.6229,-2.6255,-2.6283,-2.6304,-2.6301,-2.6322,-2.634,-2.6367,-2.6385,-2.6407,-2.6438,-2.6463,-2.6477,-2.6501,-2.6516,-2.6515,-2.6522,-2.652,-2.6523,-2.6482,-2.6473,-2.6523,-2.6523,-2.6523,-2.6523,-2.6523,-2.6523,-2.6247,-2.6283,-2.6289,-2.6332,-2.6345,-2.6375,-2.6388,-2.6404,-2.6419,-2.6454,-2.6475,-2.6485,-2.65,-2.6526,-2.6548,-2.6551,-2.656,-2.6568,-2.657,-2.6531,-2.6526,-2.6521,-2.6513,-2.657,-2.657,-2.6608,-2.6609,-2.6609]}]]